Brno, Czech Republic

10:37 PM CEST on October 01, 2016 (GMT +0200)
Turany

Weather History for LKTB - September, 2013

Change the Weather History Date:

Tuesday, September 24, 2013

  Actual Average Record
Temperature  
Mean Temperature 58 °F -  
Max Temperature 64 °F - - ()
Min Temperature 53 °F - - ()
Degree Days  
Heating Degree Days 6    
Growing Degree Days 8 (Base 50)    
Moisture  
Dew Point 50 °F    
Average Humidity 70    
Maximum Humidity 88    
Minimum Humidity 53    
Precipitation  
Precipitation 0.00 in - - ()
Sea Level Pressure  
Sea Level Pressure 29.97 in    
Wind  
Wind Speed 10 mph ()    
Max Wind Speed 20 mph    
Max Gust Speed -    
Visibility 6.9 miles    
Events      
T = Trace of Precipitation, MM = Missing Value Source: Averaged Metar Reports

Daily Weather History Graph

Daily Weather History Graph

Search for Another Location

Airport or City:

Trip Planner

Search our weather history database for the weather conditions in past years. The results will help you decide how hot, cold, wet, or windy it might be!

Date:

Astronomy

Sep. 24, 2013 Rise Set
Actual Time 6:42 AM CEST 6:46 PM CEST
Civil Twilight 6:10 AM CEST 7:18 PM CEST
Nautical Twilight 5:33 AM CEST 7:55 PM CEST
Astronomical Twilight 4:55 AM CEST 8:34 PM CEST
Moon 9:23 PM CEST (9/24) 12:07 PM CEST (9/24)
Length of Visible Light 13h 07m
Length of Day
12h 04m
Waning Gibbous, 75% of the Moon is Illuminated
Sep 24
Waning Gibbous
Sep 27
Last Quarter
Oct 5
New
Oct 12
First Quarter
Oct 19
Full

Hourly Weather History & Observations

Time (CEST) Temp. Dew Point Humidity Pressure Visibility Wind Dir Wind Speed Gust Speed Precip Events Conditions
12:00 AM 60.8 °F 50.0 °F 68% 30.01 in 6.2 mi WNW 12.7 mph - N/A   Mostly Cloudy
12:30 AM 60.8 °F 50.0 °F 68% 30.01 in 6.2 mi WNW 11.5 mph - N/A   Overcast
1:00 AM 59.0 °F 50.0 °F 72% 30.01 in 6.2 mi WNW 12.7 mph - N/A   Mostly Cloudy
1:30 AM 59.0 °F 50.0 °F 72% 30.01 in 6.2 mi WNW 10.4 mph - N/A   Partly Cloudy
2:00 AM 60 °F 49 °F 56% 30.01 in 12 mi WNW 8.9 mph - -   Mostly Cloudy
2:00 AM 59.0 °F 48.2 °F 67% 30.01 in 6.2 mi WNW 8.1 mph - N/A   Mostly Cloudy
2:30 AM 59.0 °F 50.0 °F 72% 30.01 in 6.2 mi West 10.4 mph - N/A   Overcast
3:00 AM 59.0 °F 50.0 °F 72% 30.01 in 6.2 mi WNW 9.2 mph - N/A   Mostly Cloudy
3:30 AM 59.0 °F 50.0 °F 72% 29.98 in 6.2 mi WNW 8.1 mph - N/A   Scattered Clouds
4:00 AM 59.0 °F 50.0 °F 72% 29.98 in 6.2 mi WNW 10.4 mph - N/A   Scattered Clouds
4:30 AM 59.0 °F 50.0 °F 72% 29.98 in 6.2 mi WNW 11.5 mph - N/A   Scattered Clouds
5:00 AM 59.0 °F 50.0 °F 72% 29.98 in 6.2 mi WNW 11.5 mph - N/A   Partly Cloudy
5:30 AM 59.0 °F 50.0 °F 72% 29.98 in 6.2 mi West 8.1 mph - N/A   Partly Cloudy
6:00 AM 59.0 °F 50.0 °F 72% 29.98 in 6.2 mi WNW 9.2 mph - N/A   Scattered Clouds
6:30 AM 59.0 °F 50.0 °F 72% 29.98 in 6.2 mi WNW 10.4 mph - N/A   Scattered Clouds
7:00 AM 57.2 °F 50.0 °F 77% 29.98 in 6.2 mi West 10.4 mph - N/A   Partly Cloudy
7:30 AM 57.2 °F 50.0 °F 77% 29.98 in 6.2 mi West 10.4 mph - N/A   Partly Cloudy
8:00 AM 59 °F 50 °F 64% 29.99 in 16 mi West 15.7 mph - -   Mostly Cloudy
8:00 AM 59.0 °F 50.0 °F 72% 29.98 in 6.2 mi West 12.7 mph - N/A   Mostly Cloudy
8:30 AM 59.0 °F 50.0 °F 72% 29.98 in 6.2 mi West 12.7 mph - N/A   Mostly Cloudy
9:00 AM 59.0 °F 50.0 °F 72% 29.98 in 6.2 mi West 12.7 mph - N/A   Mostly Cloudy
9:30 AM 59.0 °F 50.0 °F 72% 29.98 in 6.2 mi West 12.7 mph - N/A   Mostly Cloudy
10:00 AM 60.8 °F 50.0 °F 68% 29.98 in 6.2 mi West 15.0 mph - N/A   Partly Cloudy
10:30 AM 60.8 °F 50.0 °F 68% 29.98 in 6.2 mi WNW 13.8 mph - N/A   Mostly Cloudy
11:00 AM 60.8 °F 50.0 °F 68% 29.98 in 6.2 mi WNW 15.0 mph - N/A   Mostly Cloudy
11:30 AM 60.8 °F 50.0 °F 68% 29.98 in 6.2 mi WNW 16.1 mph - N/A   Overcast
12:00 PM 60.8 °F 50.0 °F 68% 29.98 in 6.2 mi WNW 15.0 mph - N/A   Mostly Cloudy
12:30 PM 62.6 °F 51.8 °F 68% 29.98 in 6.2 mi WNW 16.1 mph - N/A   Mostly Cloudy
1:00 PM 62.6 °F 50.0 °F 63% 29.98 in 6.2 mi WNW 18.4 mph - N/A   Mostly Cloudy
1:30 PM 64.4 °F 51.8 °F 64% 29.98 in 6.2 mi WNW 19.6 mph - N/A   Mostly Cloudy
2:00 PM 62 °F 49 °F 53% 29.97 in 25 mi WNW 15.7 mph - -   Mostly Cloudy
2:00 PM 62.6 °F 50.0 °F 63% 29.98 in 6.2 mi WNW 15.0 mph - N/A   Overcast
2:30 PM 62.6 °F 50.0 °F 63% 29.98 in 6.2 mi WNW 16.1 mph - N/A   Overcast
3:00 PM 60.8 °F 50.0 °F 68% 29.98 in 6.2 mi WNW 13.8 mph - N/A   Scattered Clouds
3:30 PM 60.8 °F 50.0 °F 68% 29.95 in 6.2 mi WNW 12.7 mph - N/A   Overcast
4:00 PM 62.6 °F 50.0 °F 63% 29.95 in 6.2 mi WNW 15.0 mph - N/A   Mostly Cloudy
4:30 PM 60.8 °F 50.0 °F 68% 29.95 in 6.2 mi WNW 11.5 mph - N/A   Mostly Cloudy
5:00 PM 60.8 °F 50.0 °F 68% 29.95 in 6.2 mi NW 11.5 mph - N/A   Mostly Cloudy
5:30 PM 60.8 °F 50.0 °F 68% 29.95 in 6.2 mi NW 9.2 mph - N/A   Mostly Cloudy
6:00 PM 60.8 °F 50.0 °F 68% 29.95 in 6.2 mi NW 8.1 mph - N/A   Mostly Cloudy
6:30 PM 60.8 °F 50.0 °F 68% 29.95 in 6.2 mi Variable 4.6 mph - N/A   Mostly Cloudy
7:00 PM 60.8 °F 50.0 °F 68% 29.92 in 6.2 mi NW 5.8 mph - N/A   Scattered Clouds
7:30 PM 59.0 °F 50.0 °F 72% 29.92 in 6.2 mi WNW 4.6 mph - N/A   Partly Cloudy
8:00 PM 59 °F 50 °F 63% 29.94 in 19 mi WNW 4.5 mph - -   Mostly Cloudy
8:00 PM 59.0 °F 50.0 °F 72% 29.92 in - WNW 4.6 mph - N/A   Clear
8:30 PM 57.2 °F 50.0 °F 77% 29.92 in - WNW 4.6 mph - N/A   Clear
9:00 PM 57.2 °F 50.0 °F 77% 29.92 in - West 4.6 mph - N/A   Clear
9:30 PM 57.2 °F 50.0 °F 77% 29.92 in - West 4.6 mph - N/A   Clear
10:00 PM 55.4 °F 50.0 °F 82% 29.95 in - West 5.8 mph - N/A   Clear
10:30 PM 53.6 °F 50.0 °F 88% 29.92 in - SW 3.5 mph - N/A   Clear
11:00 PM 53.6 °F 50.0 °F 88% 29.95 in - SW 5.8 mph - N/A   Clear
11:30 PM 53.6 °F 50.0 °F 88% 29.95 in - SW 4.6 mph - N/A   Clear